Location: Paderno d�Adda
(45.6667°N, 9.4333°E)
Time: 05:38:25
(UTC+00:00)

Cosmos 1125 Rocket - Pass Details

Date: 17 January 2021
Orbit: 757 x 781 km, 74.0° (Epoch: 05 March)

Event Time Altitude Azimuth Distance (km) Brightness Sun altitude
Rises 06:01:53 0° 343° (NNW) 3,260 6.4 -9.7°
Reaches altitude 10° 06:04:26 10° 352° (N) 2,332 5.7 -9.3°
Maximum altitude 06:09:24 39° 61° (ENE) 1,150 4.8 -8.5°
Drops below altitude 10° 06:14:21 10° 130° (SE) 2,328 7.4 -7.7°
Sets 06:16:52 0° 138° (SE) 3,253 8.1 -7.3°
